Regional Weather Roundup
Issued by NWS

Home | Current Version | Previous Version | Graphics & Text | Print | Product List | Glossary On
Versions: 1 2 3 4 5 6 7 8 9 10 11 12 13 14 15 16 17 18 19 20 21 22 23 24 25 26 27 28 29 30 31 32 33 34 35 36 37 38 39 40 41 42 43 44 45 46 47 48 49 50
000
ASUS43 KMKX 011559
RWRWI

WISCONSIN REGIONAL WEATHER ROUNDUP
NATIONAL WEATHER SERVICE MILWAUKEE/SULLIVAN WI
1000 AM CST SUN MAR 01 2015

NOTE: "FAIR" INDICATES FEW OR NO CLOUDS BELOW 12,000 FEET WITH NO
SIGNIFICANT WEATHER AND/OR OBSTRUCTIONS TO VISIBILITY.

WIZ001-002-006>008-014>016-023>028-011700-
NORTHWEST WISCONSIN

CITY           SKY/WX    TMP DP  RH WIND       PRES   REMARKS
SUPERIOR ARPT  MOSUNNY   18   9  68 W15       30.18S WCI   3
ASHLAND        LGT SNOW  19  12  74 SW8       30.16S WCI   9
HAYWARD        LGT SNOW  16  11  80 SW7       30.16S WCI   6
SIREN          LGT SNOW  19  13  78 W13       30.19F WCI   5
CUMBERLAND     LGT SNOW  18  12  79 SW10      30.18R WCI   6
RICE LAKE      LGT SNOW  17  12  81 SW8       30.21R WCI   7
CHETEK         FLURRIES  16  11  82 S7        30.20F WCI   6
LADYSMITH      LGT SNOW  15  11  83 SW8       30.20S WCI   5
EAU CLAIRE     CLOUDY    16  10  79 SW8       30.24S HAZE    WCI   5
MENOMONIE      LGT SNOW  18  13  80 SW10      30.24S WCI   6
NEW RICHMOND   LGT SNOW  17  12  80 W12       30.23R WCI   5
OSCEOLA        FLURRIES  19  13  78 W9        30.26R WCI   7
$$

WIZ003>005-009-010-017-018-011700-
NORTH CENTRAL WISCONSIN

CITY           SKY/WX    TMP DP  RH WIND       PRES   REMARKS
MANITOWISH WTR LGT SNOW  14   8  76 SW12      30.11S WCI   0
ARBOR VITAE    LGT SNOW  17  11  78 SW7       30.12S WCI   7
WOODRUFF       LGT SNOW  17  11  78 SW7       30.12S WCI   7
RHINELANDER    LGT SNOW  13   7  77 SW12      30.14S WCI  -1
EAGLE RIVER    LGT SNOW  14   6  70 SW9       30.12S WCI   2
LAND O LAKES   LGT SNOW  16   8  70 SW9       30.10F WCI   5
PHILLIPS       LGT SNOW  13   9  82 SW9       30.15R WCI   1
TOMAHAWK       LGT SNOW  14   8  77 CALM      30.17R
MEDFORD        LGT SNOW  12   8  83 SW8       30.18S WCI   1
MERRILL        LGT SNOW  14   8  79 SW7       30.19S WCI   3
$$

WIZ029-030-035-036-043>047-011700-
CENTRAL WISCONSIN

CITY           SKY/WX    TMP DP  RH WIND       PRES   REMARKS
WAUSAU         LGT SNOW  13   8  81 SW8       30.21F WCI   2
MOSINEE        LGT SNOW  12   9  85 S10       30.23F WCI  -1
MARSHFIELD     CLOUDY    13   8  81 SW9       30.22F HAZE    WCI   1
STEVENS POINT  LGT SNOW  12   7  79 SW8       30.26F WCI   0
WAUPACA        MOSUNNY   19  10  68 SW8       30.29F WCI   9
WAUTOMA        NOT AVBL
WISC RAPIDS    MOSUNNY   16   8  71 SW8       30.28F WCI   5
CAMP DOUGLAS   PTSUNNY   19  16  86 SW8       30.28F WCI   9
$$

WIZ011>013-019>022-031-037>040-048>050-011700-
NORTHEAST WISCONSIN

CITY           SKY/WX    TMP DP  RH WIND       PRES   REMARKS
ANTIGO         PTSUNNY   12   7  81 SW10      30.18S WCI  -2
SHAWANO        MOSUNNY   19  10  69 SW6       30.28S WCI  11
OCONTO         MOSUNNY   19  10  68 SW9       30.28S WCI   8
STURGEON BAY   MOSUNNY   19   9  63 SW9       30.30R WCI   9
GREEN BAY      MOSUNNY   19  12  74 SW10      30.29F WCI   7
MANITOWOC      NOT AVBL
APPLETON       FLURRIES  16  10  79 SW10      30.29S WCI   3
CLINTONVILLE   MOSUNNY   18  10  73 SW9       30.28S WCI   6
OSHKOSH        CLOUDY    19  12  74 W7        30.30F WCI  10
$$

WIZ032>034-041-042-053>061-011700-
SOUTHWEST WISCONSIN

CITY           SKY/WX    TMP DP  RH WIND       PRES   REMARKS
LA CROSSE      CLOUDY    17  12  80 S7        30.30F WCI   8
SPARTA         FLURRIES  17  11  79 SW8       30.31R WCI   6
VIROQUA        MOSUNNY   17  13  85 SW10      30.27S WCI   5
BOSCOBEL       MOSUNNY   20  12  71 SW8       30.33F WCI  10
PRAIRIE DU CHI SUNNY     18  10  73 CALM      30.34F
PLATTEVILLE    CLOUDY    14  12  91 S3        30.33S
$$

WIZ056-057-062-063-064-067-068-011700-
SOUTH CENTRAL WISCONSIN

CITY           SKY/WX    TMP DP  RH WIND       PRES   REMARKS
REEDSBURG      MOSUNNY   18  12  79 SW7       30.31S WCI   8
BARABOO/DELLS  MOSUNNY   17  11  77 SW7       30.30S WCI   8
LONE ROCK      CLOUDY    16  10  77 CALM      30.34S HAZE
MINERAL POINT  LGT SNOW  18  14  86 S5        30.31R WCI  11
MADISON        CLOUDY    18  11  74 S6        30.33S WCI  10
MIDDLETON      PTSUNNY   20  12  70 S3        30.33S
WATERTOWN      MOSUNNY   18  13  81 W5        30.32F WCI  11
MONROE         PTSUNNY   18  16  93 SW7       30.31S FOG     WCI   8
JANESVILLE     MOSUNNY   18  14  86 W6        30.34F FOG     WCI   9
$$

WIZ051-052-058>065-066-070>072-011700-
SOUTHEAST WISCONSIN

CITY           SKY/WX    TMP DP  RH WIND       PRES   REMARKS
MILWAUKEE      PTSUNNY   19  13  77 SW5       30.33F HAZE    WCI  12
WAUKESHA       MOSUNNY   16  12  86 SW5       30.32F WCI   9
MILWAUKEE/TIMM NOT AVBL
RACINE         PTSUNNY   17  13  84 W6        30.35F WCI   9
BURLINGTON     LGT SNOW  17  15  92 SW5       30.33F WCI  10
KENOSHA        CLOUDY    17  16  95 CALM      30.34F FOG
FOND DU LAC    MOSUNNY   19  12  74 SW7       30.31F WCI  10
SHEBOYGAN      MOSUNNY   19  11  70 W8        30.31F WCI   9
WEST BEND      MOSUNNY   21  12  68 SW7       30.31F WCI  13
JUNEAU         SUNNY     17  12  80 SW6       30.32F WCI   9
$$

LSZ147-162-011700-
LAKE SUPERIOR

STATION/POSITION TIME  TEMP    WIND        PRES    WAVE
                       AIR SEA DIR/SP/G            HT/PER
                 (UTC) (F)     (DEG/KT/KT) (MB)    (FT/S)
DEVILS ISLAND    1500   17     230/ 16/ 19 1021.9S
PORT WING        1540   19     250/ 13/ 17 1021.3R
SAXON HARBOR     1500   17     210/  9/ 15 1021.3
$$

LMZ867-665-643>646-011700-
LAKE MICHIGAN

STATION/POSITION TIME  TEMP    WIND        PRES    WAVE
                       AIR SEA DIR/SP/G            HT/PER
                 (UTC) (F)     (DEG/KT/KT) (MB)    (FT/S)
NORTHPORT PIER   1506   17     220/  8/ 14 1024.7F
KEWAUNEE LAKESHO 1500   16     240/  8/ 11 1025.2F
SHEBOYGAN LAKESH 1500   17     230/  8/ 10 1028.9S
PORT WASHINGTON  1540   21     250/  7/ 10 1027.8F
MILWAUKEE LAKESH 1500   18     240/  7/  9   N/A
KENOSHA   LAKESH 1500   16     270/  4/  8 1028.1F
$$

TC  - TEMPERATURE IN CELSIUS
VSB - VISIBILITY IN STATUTE MILES
WCI - WIND CHILL INDEX
HX  - HEAT INDEX



USA.gov is the U.S. government's official web portal to all federal, state and local government web resources and services.